N5COP-13 Weather Reports


Display with metric or nautical units.
time (UTC)temp
F
wind
direction
speed
MPH
gust
MPH
rain 1hr
in
rain 24hr
in
rain mn
in
humidity
%
barometer
mb
20260510152944 53 6 16.0 29.0 0.00 0.00 0.00 89 1021.5
20260510152441 53 15 20.0 26.0 0.00 0.00 0.00 89 1021.3
20260510151937 54 12 21.0 27.0 0.00 0.00 0.00 88 1021.3
20260510151434 54 14 18.0 26.0 0.00 0.00 0.00 88 1020.9
20260510150930 56 23 16.0 23.0 0.00 0.00 0.00 88 1020.7
20260510150426 56 27 16.0 26.0 0.00 0.00 0.00 88 1020.3
20260510145922 56 24 21.0 32.0 0.00 0.00 0.00 88 1020.0
20260510145413 56 40 15.0 21.0 0.00 0.00 0.00 88 1020.1
20260510144910 55 9 13.0 28.0 0.00 0.00 0.00 88 1020.0
20260510144407 56 15 12.0 22.0 0.00 0.00 0.00 88 1020.3
20260510143901 56 23 13.0 22.0 0.00 0.00 0.00 87 1020.2
20260510143357 56 13 17.0 27.0 0.00 0.00 0.00 87 1020.3
20260510142855 56 27 14.0 23.0 0.00 0.00 0.00 86 1020.0
20260510142351 56 31 11.0 29.0 0.00 0.00 0.00 86 1019.8
20260510141848 57 31 19.0 25.0 0.00 0.00 0.00 85 1019.8
20260510141345 57 32 9.0 20.0 0.00 0.00 0.00 84 1019.9
20260510140842 57 28 15.0 21.0 0.00 0.00 0.00 84 1019.7
20260510140338 57 29 19.0 24.0 0.00 0.00 0.00 83 1019.7
20260510135831 57 17 9.0 24.0 0.00 0.00 0.00 83 1019.6
20260510135327 57 30 18.0 23.0 0.00 0.00 0.00 83 1019.6
20260510134825 57 18 15.0 27.0 0.00 0.00 0.00 82 1019.4
20260510134322 57 31 20.0 28.0 0.00 0.00 0.00 82 1019.0
20260510133818 57 13 19.0 26.0 0.00 0.00 0.00 82 1018.7
20260510133314 57 28 14.0 24.0 0.00 0.00 0.00 82 1018.7
20260510132810 57 28 21.0 27.0 0.00 0.00 0.00 82 1018.8
20260510132308 58 0 10.0 27.0 0.00 0.00 0.00 82 1018.5
20260510131805 58 27 16.0 21.0 0.00 0.00 0.00 82 1018.5
20260510131303 58 9 13.0 28.0 0.00 0.00 0.00 82 1018.4
20260510130759 59 9 14.0 23.0 0.00 0.00 0.00 82 1018.1
20260510130256 59 22 12.0 24.0 0.00 0.00 0.00 82 1017.9
20260510125752 59 29 14.0 20.0 0.00 0.00 0.00 82 1017.9
20260510125248 60 33 8.0 19.0 0.00 0.00 0.00 82 1017.5
20260510124745 60 19 15.0 21.0 0.00 0.00 0.00 81 1017.5
20260510124243 60 33 15.0 17.0 0.00 0.00 0.00 81 1017.4
20260510123738 60 23 9.0 17.0 0.00 0.00 0.00 81 1017.1
20260510123234 60 38 14.0 16.0 0.00 0.00 0.00 81 1016.9
20260510122730 60 31 16.0 17.0 0.00 0.00 0.00 80 1016.8
20260510122227 60 69 6.0 20.0 0.00 0.00 0.00 80 1016.4
20260510121723 60 59 9.0 17.0 0.00 0.00 0.00 80 1016.3
20260510121221 60 47 11.0 15.0 0.00 0.00 0.00 80 1016.5
20260510120718 60 28 11.0 17.0 0.00 0.00 0.00 80 1016.3
20260510120214 60 34 8.0 15.0 0.00 0.00 0.00 80 1016.2
20260510115710 61 49 8.0 15.0 0.00 0.00 0.00 80 1016.1
20260510115209 61 23 10.0 17.0 0.00 0.00 0.00 80 1015.9
20260510114703 61 80 14.0 19.0 0.00 0.00 0.00 81 1015.6
20260510114200 61 87 11.0 19.0 0.00 0.00 0.00 82 1015.9
20260510113655 61 71 12.0 19.0 0.00 0.00 0.00 82 1015.5
20260510113152 60 69 20.0 20.0 0.00 0.00 0.00 82 1015.6
20260510112649 60 81 22.0 26.0 0.00 0.00 0.00 82 1015.3
20260510112146 60 86 18.0 27.0 0.00 0.00 0.00 82 1015.1
20260510111636 60 81 22.0 28.0 0.00 0.00 0.00 83 1015.2
20260510111133 60 75 24.0 27.0 0.00 0.00 0.00 83 1015.3
20260510110628 60 79 15.0 22.0 0.00 0.00 0.00 83 1015.3
20260510110125 60 74 8.0 27.0 0.00 0.00 0.00 83 1015.5
20260510105620 60 94 13.0 24.0 0.00 0.00 0.00 83 1015.3
20260510105115 60 57 7.0 16.0 0.00 0.00 0.00 83 1015.3
20260510104613 60 58 7.0 15.0 0.00 0.00 0.00 83 1015.1
20260510104109 60 77 16.0 20.0 0.00 0.00 0.00 83 1014.7
20260510103606 60 77 16.0 21.0 0.00 0.00 0.00 82 1014.6
20260510103102 60 86 8.0 15.0 0.00 0.00 0.00 82 1014.7
20260510102557 60 25 7.0 17.0 0.00 0.00 0.00 82 1015.0
20260510102054 60 69 13.0 15.0 0.00 0.00 0.00 81 1014.7
20260510101552 60 76 5.0 18.0 0.00 0.00 0.00 81 1014.5
20260510101050 60 20 8.0 13.0 0.00 0.00 0.00 81 1014.6
20260510100545 60 35 10.0 14.0 0.00 0.00 0.00 80 1014.2
20260510100043 60 65 11.0 14.0 0.00 0.00 0.00 80 1014.0
20260510095539 60 12 5.0 13.0 0.00 0.00 0.00 79 1014.4
20260510095037 60 12 3.0 10.0 0.00 0.00 0.00 79 1014.0
20260510094532 60 89 10.0 12.0 0.00 0.00 0.00 78 1014.0
20260510094028 61 60 7.0 11.0 0.00 0.00 0.00 78 1014.1
20260510093524 61 69 7.0 12.0 0.00 0.00 0.00 77 1013.5
20260510093021 61 77 9.0 17.0 0.00 0.00 0.00 77 1013.4
20260510092518 61 81 10.0 17.0 0.00 0.00 0.00 77 1013.4
20260510092017 61 78 16.0 18.0 0.00 0.00 0.00 77 1013.3
20260510091515 61 78 12.0 16.0 0.00 0.00 0.00 76 1013.3
20260510091010 62 75 13.0 14.0 0.00 0.00 0.00 76 1013.0
20260510090508 62 65 9.0 14.0 0.00 0.00 0.00 75 1013.2
20260510090003 62 73 8.0 15.0 0.00 0.00 0.00 75 1013.0
20260510085458 63 83 10.0 12.0 0.00 0.00 0.00 75 1013.0
20260510084954 63 91 9.0 14.0 0.00 0.00 0.00 75 1013.0
20260510084451 63 84 10.0 15.0 0.00 0.00 0.00 75 1013.0
20260510083948 63 76 11.0 16.0 0.00 0.00 0.00 76 1013.2
20260510083445 63 80 10.0 11.0 0.00 0.00 0.00 76 1013.4
20260510082940 63 35 2.0 6.0 0.00 0.00 0.00 76 1013.6
20260510082438 63 79 6.0 7.0 0.00 0.00 0.00 75 1013.5
20260510081937 63 89 4.0 10.0 0.00 0.00 0.00 75 1013.2
20260510081433 63 78 7.0 11.0 0.00 0.00 0.00 75 1013.0
20260510080930 64 94 10.0 12.0 0.00 0.00 0.00 74 1013.2
20260510080428 64 95 14.0 19.0 0.00 0.00 0.00 74 1013.0
20260510075925 64 99 14.0 20.0 0.00 0.00 0.00 74 1012.8
20260510075424 65 103 17.0 24.0 0.00 0.00 0.00 74 1012.8
20260510074920 65 96 12.0 22.0 0.00 0.00 0.00 74 1012.3
20260510074417 65 84 12.0 17.0 0.00 0.00 0.00 73 1012.3
20260510073913 65 100 13.0 16.0 0.00 0.00 0.00 73 1012.4
20260510073409 65 94 11.0 18.0 0.00 0.00 0.00 73 1012.2
20260510072905 65 92 14.0 15.0 0.00 0.00 0.00 72 1012.3
20260510072402 66 76 9.0 15.0 0.00 0.00 0.00 72 1012.1
20260510071858 66 81 9.0 16.0 0.00 0.00 0.00 72 1012.0
20260510071354 66 84 13.0 16.0 0.00 0.00 0.00 71 1012.1
20260510070853 66 84 10.0 17.0 0.00 0.00 0.00 71 1012.1
20260510070350 67 51 5.0 11.0 0.00 0.00 0.00 70 1012.2
20260510065850 67 67 7.0 13.0 0.00 0.00 0.00 70 1012.5
20260510065347 67 78 9.0 12.0 0.00 0.00 0.00 69 1012.3
20260510064843 67 24 8.0 12.0 0.00 0.00 0.00 68 1012.7
20260510064342 68 66 9.0 13.0 0.00 0.00 0.00 68 1012.5
20260510063838 68 25 8.0 10.0 0.00 0.00 0.00 66 1012.8
20260510063334 68 15 5.0 12.0 0.00 0.00 0.00 65 1012.5
20260510062831 69 75 17.0 18.0 0.00 0.00 0.00 65 1012.4
20260510062326 69 72 17.0 21.0 0.00 0.00 0.00 63 1012.3
20260510061821 69 75 16.0 22.0 0.00 0.00 0.00 62 1012.1
20260510061319 70 80 16.0 21.0 0.00 0.00 0.00 60 1012.1
20260510060815 70 93 15.0 22.0 0.00 0.00 0.00 58 1012.1
20260510060312 71 79 9.0 14.0 0.00 0.00 0.00 54 1012.2
20260510055809 72 60 5.0 13.0 0.00 0.00 0.00 52 1011.5
20260510055308 73 79 5.0 8.0 0.00 0.00 0.00 50 1011.4
20260510054807 74 109 10.0 11.0 0.00 0.00 0.00 47 1011.3
20260510054303 75 27 9.0 16.0 0.00 0.00 0.00 43 1011.2
20260510053758 75 60 3.0 9.0 0.00 0.00 0.00 37 1011.2
20260510053253 74 260 10.0 23.0 0.00 0.00 0.00 39 1010.8
20260510052750 75 71 12.0 22.0 0.00 0.00 0.00 41 1011.3
20260510052240 74 26 6.0 17.0 0.00 0.00 0.00 37 1011.7
20260510051736 74 338 10.0 15.0 0.00 0.00 0.00 34 1011.6
20260510051233 75 8 4.0 11.0 0.00 0.00 0.00 30 1011.2
20260510050730 76 76 11.0 12.0 0.00 0.00 0.00 26 1011.1
20260510050227 76 84 6.0 10.0 0.00 0.00 0.00 22 1010.8
20260510045724 77 88 8.0 9.0 0.00 0.00 0.00 20 1011.3
20260510045221 79 21 5.0 8.0 0.00 0.00 0.00 18 1011.6
20260510044717 81 11 2.0 3.0 0.00 0.00 0.00 17 1011.3
20260510044216 81 27 3.0 5.0 0.00 0.00 0.00 18 1011.2
20260510043710 80 47 3.0 6.0 0.00 0.00 0.00 17 1011.3
20260510043207 81 13 4.0 4.0 0.00 0.00 0.00 16 1011.1
20260510042704 83 19 5.0 10.0 0.00 0.00 0.00 16 1010.9
20260510042201 84 41 9.0 12.0 0.00 0.00 0.00 16 1011.3
20260510041658 84 64 8.0 13.0 0.00 0.00 0.00 17 1011.1
20260510041155 84 78 7.0 37.0 0.00 0.00 0.00 16 1011.2
20260510040652 84 179 9.0 28.0 0.00 0.00 0.00 16 1011.7
20260510040149 84 250 9.0 9.0 0.00 0.00 0.00 15 1011.5
20260510035644 84 304 0.0 2.0 0.00 0.00 0.00 15 1011.1
20260510035139 85 222 8.0 16.0 0.00 0.00 0.00 15 1010.7
20260510034636 84 133 10.0 24.0 0.00 0.00 0.00 16 1011.1
20260510034133 84 142 19.0 23.0 0.00 0.00 0.00 15 1011.1
20260510033629 82 174 12.0 28.0 0.00 0.00 0.00 16 1010.7
20260510033128 80 97 7.0 10.0 0.00 0.00 0.00 14 1010.6
20260510032623 82 130 6.0 9.0 0.00 0.00 0.00 14 1010.6
20260510032119 82 313 1.0 2.0 0.00 0.00 0.00 14 1010.4
20260510031614 82 25 1.0 4.0 0.00 0.00 0.00 14 1010.6
20260510031111 82 28 3.0 4.0 0.00 0.00 0.00 14 1010.4
20260510030606 82 18 2.0 7.0 0.00 0.00 0.00 15 1010.2
20260510030104 83 359 4.0 14.0 0.00 0.00 0.00 16 1010.2
20260510025600 82 354 11.0 14.0 0.00 0.00 0.00 16 1010.3
20260510025058 79 344 7.0 13.0 0.00 0.00 0.00 17 1010.4
20260510024555 75 339 5.0 7.0 0.00 0.00 0.00 17 1010.3
20260510024050 75 266 7.0 9.0 0.00 0.00 0.00 17 1010.2
20260510023547 75 344 3.0 5.0 0.00 0.00 0.00 16 1009.7
20260510023044 77 283 0.0 0.0 0.00 0.00 0.00 16 1009.4
20260510022544 77 153 2.0 2.0 0.00 0.00 0.00 16 1008.9
20260510022038 77 148 2.0 3.0 0.00 0.00 0.00 16 1008.8
20260510021535 78 138 3.0 5.0 0.00 0.00 0.00 16 1008.7
20260510021032 77 144 3.0 3.0 0.00 0.00 0.00 17 1008.6
20260510020527 76 163 2.0 2.0 0.00 0.00 0.00 17 1008.7
20260510020023 77 166 2.0 2.0 0.00 0.00 0.00 16 1008.5
20260510015518 78 197 2.0 2.0 0.00 0.00 0.00 16 1008.4
20260510015015 78 187 0.0 1.0 0.00 0.00 0.00 15 1008.2
20260510014511 79 211 1.0 1.0 0.00 0.00 0.00 15 1008.4
20260510014009 79 222 1.0 2.0 0.00 0.00 0.00 15 1008.4
20260510013502 80 218 1.0 2.0 0.00 0.00 0.00 15 1008.2
20260510012959 81 265 2.0 2.0 0.00 0.00 0.00 14 1008.2
20260510012453 82 333 0.0 1.0 0.00 0.00 0.00 14 1008.2
20260510011949 83 326 0.0 2.0 0.00 0.00 0.00 13 1008.2
20260510011444 84 325 1.0 2.0 0.00 0.00 0.00 13 1008.0
20260510010940 85 353 2.0 4.0 0.00 0.00 0.00 13 1007.9
20260510010437 87 356 2.0 3.0 0.00 0.00 0.00 12 1007.9
20260510005934 87 340 3.0 4.0 0.00 0.00 0.00 12 1007.9
20260510005430 88 287 6.0 6.0 0.00 0.00 0.00 12 1007.9
20260510004927 88 298 4.0 5.0 0.00 0.00 0.00 12 1007.9
20260510004425 89 304 9.0 13.0 0.00 0.00 0.00 11 1007.7
20260510003923 90 297 6.0 9.0 0.00 0.00 0.00 11 1007.8
20260510003419 90 323 8.0 9.0 0.00 0.00 0.00 11 1007.9
20260510002919 89 326 6.0 11.0 0.00 0.00 0.00 11 1007.7
20260510002416 90 286 10.0 14.0 0.00 0.00 0.00 11 1007.8
20260510001912 90 308 13.0 14.0 0.00 0.00 0.00 10 1007.9
20260510001410 90 301 13.0 16.0 0.00 0.00 0.00 10 1007.9
20260510000907 90 309 6.0 13.0 0.00 0.00 0.00 10 1007.8
20260510000404 91 326 10.0 17.0 0.00 0.00 0.00 9 1007.9
20260509235900 91 350 8.0 15.0 0.00 0.00 0.00 9 1007.9
20260509235357 91 345 10.0 15.0 0.00 0.00 0.00 9 1008.0
20260509234853 91 334 11.0 15.0 0.00 0.00 0.00 9 1008.0
20260509234350 92 283 7.0 8.0 0.00 0.00 0.00 9 1007.9
20260509233848 91 289 4.0 8.0 0.00 0.00 0.00 9 1008.0
20260509233345 91 299 8.0 15.0 0.00 0.00 0.00 9 1008.3
20260509232841 91 276 9.0 12.0 0.00 0.00 0.00 9 1008.2
20260509232339 91 273 14.0 18.0 0.00 0.00 0.00 9 1008.4
20260509231834 91 266 17.0 22.0 0.00 0.00 0.00 9 1008.3
20260509231332 91 289 11.0 17.0 0.00 0.00 0.00 9 1008.4
20260509230829 91 312 17.0 18.0 0.00 0.00 0.00 10 1008.5
20260509230326 91 288 13.0 17.0 0.00 0.00 0.00 10 1008.4
20260509225821 91 304 10.0 17.0 0.00 0.00 0.00 10 1008.5
20260509225319 91 281 10.0 17.0 0.00 0.00 0.00 10 1008.5
20260509224814 91 276 13.0 20.0 0.00 0.00 0.00 10 1008.6
20260509224311 91 309 10.0 16.0 0.00 0.00 0.00 10 1008.6
20260509223807 91 287 12.0 18.0 0.00 0.00 0.00 10 1008.4
20260509223305 90 235 12.0 15.0 0.00 0.00 0.00 11 1008.7
20260509222801 91 241 17.0 21.0 0.00 0.00 0.00 10 1008.6
20260509222257 91 258 11.0 23.0 0.00 0.00 0.00 11 1008.6
20260509221753 91 253 15.0 22.0 0.00 0.00 0.00 10 1008.7
20260509221250 91 258 15.0 17.0 0.00 0.00 0.00 11 1008.7
20260509220745 91 279 9.0 15.0 0.00 0.00 0.00 11 1008.7
20260509220242 91 320 17.0 23.0 0.00 0.00 0.00 10 1008.9
20260509215737 91 287 10.0 19.0 0.00 0.00 0.00 11 1008.7
20260509215234 91 295 13.0 20.0 0.00 0.00 0.00 11 1008.8
20260509214731 91 314 20.0 23.0 0.00 0.00 0.00 11 1009.0
20260509214227 91 295 26.0 28.0 0.00 0.00 0.00 12 1008.8
20260509213719 91 314 16.0 22.0 0.00 0.00 0.00 12 1009.2
20260509213214 91 298 22.0 28.0 0.00 0.00 0.00 12 1009.0
20260509212712 91 301 22.0 25.0 0.00 0.00 0.00 12 1009.2
20260509212209 91 315 18.0 22.0 0.00 0.00 0.00 13 1009.3
20260509211705 91 284 18.0 26.0 0.00 0.00 0.00 13 1009.3
20260509211202 91 295 11.0 22.0 0.00 0.00 0.00 14 1009.3
20260509210658 91 287 21.0 27.0 0.00 0.00 0.00 13 1009.5
20260509210156 91 303 12.0 22.0 0.00 0.00 0.00 13 1009.6
20260509205651 91 318 17.0 23.0 0.00 0.00 0.00 13 1009.5
20260509205150 90 300 20.0 25.0 0.00 0.00 0.00 13 1009.7
20260509204646 90 316 22.0 25.0 0.00 0.00 0.00 13 1009.5
20260509204143 91 274 16.0 25.0 0.00 0.00 0.00 14 1009.6
20260509203638 91 303 21.0 27.0 0.00 0.00 0.00 14 1009.6
20260509203132 90 280 16.0 26.0 0.00 0.00 0.00 15 1009.6
20260509202631 90 247 17.0 24.0 0.00 0.00 0.00 16 1009.7
20260509202127 89 285 18.0 23.0 0.00 0.00 0.00 16 1009.8
20260509201622 90 265 9.0 17.0 0.00 0.00 0.00 17 1009.7
20260509201120 90 294 16.0 21.0 0.00 0.00 0.00 17 1009.8
20260509200615 89 291 19.0 27.0 0.00 0.00 0.00 18 1009.9
20260509200111 89 234 14.0 17.0 0.00 0.00 0.00 18 1010.1
20260509195607 89 246 18.0 22.0 0.00 0.00 0.00 18 1010.1
20260509195102 89 284 14.0 16.0 0.00 0.00 0.00 20 1010.3
20260509194601 89 263 15.0 25.0 0.00 0.00 0.00 19 1010.2
20260509194059 89 245 17.0 22.0 0.00 0.00 0.00 19 1010.4
20260509193555 89 255 12.0 19.0 0.00 0.00 0.00 18 1010.2
20260509193051 89 281 11.0 19.0 0.00 0.00 0.00 18 1010.5
20260509192548 89 276 16.0 18.0 0.00 0.00 0.00 18 1010.4
20260509192042 88 289 13.0 25.0 0.00 0.00 0.00 18 1010.4
20260509191537 88 291 14.0 21.0 0.00 0.00 0.00 19 1010.4
20260509191033 87 247 10.0 14.0 0.00 0.00 0.00 20 1010.7
20260509190530 88 265 13.0 18.0 0.00 0.00 0.00 20 1010.8
20260509190029 87 266 9.0 25.0 0.00 0.00 0.00 19 1010.6
20260509185526 87 258 21.0 25.0 0.00 0.00 0.00 19 1010.8
20260509185021 86 265 10.0 18.0 0.00 0.00 0.00 20 1010.8
20260509184520 86 277 20.0 24.0 0.00 0.00 0.00 21 1011.2
20260509184016 87 232 19.0 21.0 0.00 0.00 0.00 21 1011.1
20260509183511 87 226 16.0 25.0 0.00 0.00 0.00 21 1011.2
20260509183007 85 253 10.0 17.0 0.00 0.00 0.00 23 1011.5
20260509182458 85 231 16.0 19.0 0.00 0.00 0.00 23 1011.6
20260509181955 86 226 10.0 26.0 0.00 0.00 0.00 24 1011.8
20260509181454 85 266 17.0 18.0 0.00 0.00 0.00 24 1011.7
20260509180950 84 247 13.0 21.0 0.00 0.00 0.00 25 1012.1
20260509180446 84 244 17.0 26.0 0.00 0.00 0.00 24 1012.2
20260509175943 83 240 9.0 19.0 0.00 0.00 0.00 26 1012.1
20260509175439 83 247 20.0 27.0 0.00 0.00 0.00 25 1012.4
20260509174936 83 216 11.0 19.0 0.00 0.00 0.00 27 1012.3
20260509174432 82 231 15.0 20.0 0.00 0.00 0.00 28 1012.4
20260509173927 83 203 14.0 26.0 0.00 0.00 0.00 27 1012.5
20260509173427 82 242 13.0 23.0 0.00 0.00 0.00 27 1012.6
20260509172924 82 199 10.0 18.0 0.00 0.00 0.00 28 1012.6
20260509172421 82 208 20.0 21.0 0.00 0.00 0.00 28 1012.7
20260509171917 82 165 11.0 15.0 0.00 0.00 0.00 28 1012.6
20260509171413 82 241 21.0 25.0 0.00 0.00 0.00 28 1012.6
20260509170909 81 219 15.0 19.0 0.00 0.00 0.00 29 1012.7
20260509170405 81 181 9.0 15.0 0.00 0.00 0.00 29 1013.0
20260509165901 82 241 16.0 19.0 0.00 0.00 0.00 29 1012.8
20260509165355 81 199 10.0 16.0 0.00 0.00 0.00 31 1013.0
20260509164851 81 199 12.0 21.0 0.00 0.00 0.00 30 1013.0
20260509164347 80 216 11.0 17.0 0.00 0.00 0.00 30 1013.0
20260509163843 80 180 9.0 17.0 0.00 0.00 0.00 31 1013.2
20260509163340 80 207 17.0 18.0 0.00 0.00 0.00 32 1013.2
20260509162839 80 215 15.0 24.0 0.00 0.00 0.00 32 1013.3
20260509162338 80 200 8.0 17.0 0.00 0.00 0.00 32 1013.3
20260509161835 79 201 9.0 16.0 0.00 0.00 0.00 33 1013.5
20260509161331 79 199 13.0 17.0 0.00 0.00 0.00 32 1013.5
20260509160827 79 196 9.0 17.0 0.00 0.00 0.00 33 1013.4
20260509160323 78 170 13.0 20.0 0.00 0.00 0.00 34 1013.2
20260509155818 78 171 10.0 20.0 0.00 0.00 0.00 34 1013.4
20260509155315 78 170 15.0 19.0 0.00 0.00 0.00 34 1013.3
20260509154811 77 171 10.0 19.0 0.00 0.00 0.00 36 1013.5
20260509154308 77 189 9.0 17.0 0.00 0.00 0.00 37 1013.6
20260509153805 76 165 10.0 19.0 0.00 0.00 0.00 38 1013.6
20260509153301 76 197 13.0 17.0 0.00 0.00 0.00 38 1013.7